{"data":{"norad_id":57129,"intl_designator":"2023-090AE","name":"STARLINK-6170","alt_names":[],"object_type":"PAYLOAD","status":"ACTIVE","operator":null,"country":"US","launch_date":"2023-06-23","launch_site_code":"AFETR","launch_vehicle":null,"mission":null,"orbit_class":"UNKNOWN","rcs_meters":null,"size_class":null,"mass_kg":null,"dimensions":null,"purposes":["comms"],"wikipedia_slug":null,"has_3d_model":false,"image_url":null,"decayed_at":null,"tle_current":{"epoch":"2026-09-20T10:46:27.727392Z","epoch_age_seconds":125268,"freshness":"FRESH","line1":"1 57129U 23090AE  26263.44893203 -.00001208  00000+0 -34413-4 0  9991","line2":"2 57129  43.0008 243.9323 0000361 314.3334  45.7488 15.27574585180136","mean_motion":15.27574585,"eccentricity":3.61e-5,"inclination_deg":43.0008,"raan_deg":243.9323,"arg_perigee_deg":314.3334,"mean_anomaly_deg":45.7488,"bstar":-3.4413e-5,"rev_number":18013,"period_min":94.267082873731,"perigee_km":482.81762114218,"apogee_km":483.312999949,"semimajor_km":6861.2023105456,"source":"CELESTRAK","updated_at":"2026-09-21T09:00:33.563815Z"}}}